Voltar ao catálogo

IRIDE-MS2-HEO-15

AtivoCiênciaSSO
NORAD 68987·PAYLOAD·🇮🇹 Italy

Lançado May 3, 2026 de Vandenberg Space Force Base

Loading…

Próximas Passagens (próximas 24 horas)

TLE

AtualizadoSource: Space-Track

Época: Sep 14, 2026, 16:16 UTC

1 68987U 26100H   26257.67787960  .00001048  00000-0  10884-3 0  9996
2 68987  97.7208 153.3904 0001864 140.8517 219.2837 14.92010902 20049

Acompanhe IRIDE-MS2-HEO-15 em tempo real com AllMySat

Download on the App Store